Torna al catalogo

USA 395

AttivoMilitareVLEO
NORAD 60178·PAYLOAD·🇺🇸 United States

Lanciato Jun 29, 2024 da Vandenberg Space Force Base

Loading…

Prossimi Passaggi (prossime 24 ore)

TLE

ObsoletoSource: Mike McCants

Epoca: Aug 26, 2026, 00:41 UTC

1 60178U 24121W   26238.02868745 0.00000000  00000-0  00000-0 0    06
2 60178  70.0180 211.4834 0003000 216.3023 143.6977 14.96713300    04

Traccia USA 395 in tempo reale con AllMySat

Download on the App Store